EST,Max TemperatureF,Mean TemperatureF,Min TemperatureF,Max Dew PointF,MeanDew PointF,Min DewpointF,Max Humidity, Mean Humidity, Min Humidity, Max Sea Level PressureIn, Mean Sea Level PressureIn, Min Sea Level PressureIn, Max VisibilityMiles, Mean VisibilityMiles, Min VisibilityMiles, Max Wind SpeedMPH, Mean Wind SpeedMPH, Max Gust SpeedMPH,PrecipitationIn, CloudCover, Events, WindDirDegrees
2011-2-1,61,50,39,57,41,35,93,84,62,30.27,30.21,30.05,10,6,1,13,7,,0.00,7,Rain,36
2011-2-2,62,58,54,59,55,41,94,87,55,30.12,29.98,29.92,10,5,1,24,16,33,0.11,6,Rain,220
2011-2-3,55,47,39,40,27,23,67,50,38,30.43,30.33,30.13,10,10,10,16,10,21,0.00,5,,30
2011-2-4,45,40,37,43,37,28,93,86,65,30.38,30.20,30.01,10,5,2,16,8,26,1.49,8,Rain,36
2011-2-5,62,54,46,60,50,44,100,91,80,29.99,29.84,29.71,10,8,2,23,10,30,0.25,8,Rain,213
2011-2-6,53,47,39,45,41,37,93,80,61,30.07,30.01,29.87,10,9,2,10,6,,0.03,0,,244
2011-2-7,52,46,39,45,42,36,93,86,71,30.07,29.91,29.73,10,8,2,9,2,,0.54,5,Rain,26
2011-2-8,54,46,37,45,37,20,89,69,41,30.25,29.94,29.75,10,9,3,18,12,24,0.07,4,Rain,291
2011-2-9,45,38,32,39,30,19,100,70,50,30.36,30.19,29.96,10,10,6,12,7,18,0.08,4,Rain,37
2011-2-10,39,34,28,39,32,23,100,87,60,30.25,30.06,29.94,10,9,4,20,12,25,0.16,6,Rain-Snow,12
2011-2-11,39,34,28,38,33,23,100,85,60,30.24,30.11,30.03,10,9,6,16,8,24,0.05,6,Rain,19
2011-2-12,53,42,32,40,32,25,96,67,38,30.24,30.15,30.08,10,10,10,15,9,23,0.00,0,,271
2011-2-13,52,43,34,42,34,24,82,66,34,30.30,30.23,30.15,10,10,10,14,5,,0.00,0,,240
2011-2-14,57,52,48,44,43,39,80,69,59,30.14,29.97,29.82,10,10,9,26,15,37,0.00,0,,236
2011-2-15,54,46,34,34,29,18,70,51,24,30.43,30.30,30.09,10,10,10,16,12,23,0.00,0,,13
2011-2-16,59,46,32,48,39,26,96,78,55,30.48,30.40,30.33,10,10,10,9,4,,0.00,1,,81
2011-2-17,66,55,44,54,48,42,100,83,52,30.34,30.28,30.20,10,8,2,15,3,,0.00,2,,198
2011-2-18,63,58,53,57,54,49,100,89,70,30.19,30.11,29.99,10,7,0,21,11,26,0.00,3,Fog,231
2011-2-19,70,61,52,50,31,18,93,40,14,30.17,30.07,30.01,10,10,6,23,10,30,0.00,0,,306
2011-2-20,57,48,39,41,23,13,64,38,18,30.29,30.21,30.11,10,10,10,17,9,23,0.00,2,,36
2011-2-21,63,58,53,55,52,43,90,81,69,30.07,29.86,29.73,10,9,7,26,14,37,0.00,3,,221
2011-2-22,59,48,37,54,41,31,87,80,71,30.22,29.96,29.69,10,9,7,21,15,30,0.00,7,,10
2011-2-23,53,45,37,38,34,30,85,70,41,30.32,30.27,30.21,10,10,9,17,11,21,0.00,3,Snow,28
2011-2-24,61,49,37,58,42,32,93,73,37,30.30,30.20,30.02,10,10,10,14,5,21,0.00,2,,135
2011-2-25,64,59,50,61,54,34,90,81,47,30.10,29.88,29.73,10,8,4,28,18,38,0.01,4,,211
2011-2-26,59,51,43,49,41,33,96,72,58,30.24,30.13,30.05,10,10,7,13,9,20,0.00,4,,40
2011-2-27,63,57,51,59,55,51,100,95,72,30.14,30.07,30.02,10,3,0,14,8,23,0.00,5,Fog,222
2011-2-28,68,62,57,63,60,57,100,90,78,30.06,29.95,29.83,10,5,0,25,13,37,0.26,6,Fog-Rain-Thunderstorm,230